EWG146 EDDH-EDDK

Flight info

Callsign EWG146
Flight time 0h 43m
Altitude 23000
Route IDEKO7G/33 IDEKO N850 WRB/N0390F220 P12 ESADU T858 KOPAG KOPAG1B
Aircraft A320/M-SDE3FGHIRWY/LB1

Departure

Time 2026-05-06 18:05
Airport Hamburg Helmut Schmidt Airport (EDDH)

Arrival

Time 2026-05-06 18:48
Airport Cologne Bonn Airport (EDDK)
Time Latitude Longitude Altitude Speed Heading
2026-05-06 17:43 53.63112 10.00374 46 ft 0 kts 87°
2026-05-06 17:59 53.63111 10.00343 45 ft 4 kts 87°
2026-05-06 17:59 53.63110 10.00307 44 ft 4 kts 95°
2026-05-06 18:00 53.63117 10.00268 48 ft 4 kts 141°
2026-05-06 18:00 53.63129 10.00257 47 ft 0 kts 176°
2026-05-06 18:02 53.63128 10.00257 47 ft 2 kts 176°
2026-05-06 18:02 53.63060 10.00249 48 ft 13 kts 200°
2026-05-06 18:02 53.62985 10.00173 47 ft 12 kts 213°
2026-05-06 18:03 53.62919 10.00102 48 ft 11 kts 213°
2026-05-06 18:03 53.62867 10.00030 48 ft 9 kts 234°
2026-05-06 18:03 53.62849 9.99973 48 ft 0 kts 242°
2026-05-06 18:03 53.62843 9.99954 46 ft 10 kts 242°
2026-05-06 18:04 53.62815 9.99801 45 ft 12 kts 300°
2026-05-06 18:04 53.62894 9.99720 45 ft 25 kts 332°
2026-05-06 18:04 53.63282 9.99392 47 ft 96 kts 333°
2026-05-06 18:04 53.64045 9.98728 52 ft 149 kts 333°
2026-05-06 18:05 53.65040 9.97840 405 ft 165 kts 334°
2026-05-06 18:05 53.66053 9.96886 1080 ft 167 kts 335°
2026-05-06 18:05 53.67078 9.95934 1783 ft 170 kts 338°
2026-05-06 18:05 53.68164 9.94986 2211 ft 185 kts 340°
2026-05-06 18:06 53.69393 9.93995 2497 ft 207 kts 340°
2026-05-06 18:06 53.70695 9.92762 3047 ft 223 kts 321°
2026-05-06 18:06 53.71465 9.90440 3747 ft 241 kts 282°
2026-05-06 18:06 53.71367 9.87477 4134 ft 268 kts 258°
2026-05-06 18:07 53.70830 9.84382 4814 ft 279 kts 251°
2026-05-06 18:07 53.70148 9.81292 5723 ft 282 kts 249°
2026-05-06 18:07 53.69434 9.78206 6621 ft 284 kts 250°
2026-05-06 18:07 53.68729 9.75089 7516 ft 285 kts 250°
2026-05-06 18:08 53.68050 9.71931 8376 ft 288 kts 252°
2026-05-06 18:08 53.67389 9.68722 9232 ft 291 kts 253°
2026-05-06 18:08 53.66736 9.65462 9880 ft 295 kts 253°
2026-05-06 18:08 53.65890 9.62282 10595 ft 303 kts 239°
2026-05-06 18:09 53.64459 9.59510 10834 ft 327 kts 218°
2026-05-06 18:09 53.62414 9.57622 11180 ft 344 kts 197°
2026-05-06 18:09 53.60049 9.56903 11815 ft 349 kts 186°
2026-05-06 18:09 53.57662 9.56450 12594 ft 350 kts 186°
2026-05-06 18:10 53.55202 9.55968 13365 ft 352 kts 187°
2026-05-06 18:10 53.52791 9.55489 14055 ft 355 kts 187°
2026-05-06 18:10 53.50334 9.54998 14731 ft 357 kts 187°
2026-05-06 18:10 53.47861 9.54505 15379 ft 359 kts 187°
2026-05-06 18:11 53.45374 9.54012 16079 ft 361 kts 187°
2026-05-06 18:11 53.43684 9.53679 16513 ft 362 kts 187°
2026-05-06 18:11 53.40353 9.53024 17363 ft 366 kts 188°
2026-05-06 18:11 53.37816 9.52531 17973 ft 369 kts 188°
2026-05-06 18:12 53.35258 9.52035 18506 ft 372 kts 188°
2026-05-06 18:12 53.32680 9.51532 19028 ft 374 kts 188°
2026-05-06 18:12 53.30082 9.51022 19535 ft 377 kts 188°
2026-05-06 18:12 53.27465 9.50510 19816 ft 379 kts 188°
2026-05-06 18:13 53.24841 9.49994 19877 ft 379 kts 188°
2026-05-06 18:13 53.22217 9.49477 19885 ft 379 kts 188°
2026-05-06 18:13 53.19600 9.48960 19884 ft 379 kts 188°
2026-05-06 18:13 53.17012 9.48455 19877 ft 379 kts 188°
2026-05-06 18:14 53.14360 9.47945 19879 ft 379 kts 188°
2026-05-06 18:14 53.11774 9.47447 19879 ft 379 kts 188°
2026-05-06 18:14 53.09153 9.46942 19902 ft 380 kts 188°
2026-05-06 18:14 53.06514 9.46431 20360 ft 383 kts 188°
2026-05-06 18:15 53.03859 9.45915 20875 ft 385 kts 188°
2026-05-06 18:15 53.01184 9.45395 21367 ft 388 kts 188°
2026-05-06 18:15 52.98490 9.44870 21843 ft 391 kts 188°
2026-05-06 18:15 52.95780 9.44316 22297 ft 394 kts 188°
2026-05-06 18:16 52.93047 9.43732 22738 ft 397 kts 188°
2026-05-06 18:16 52.90301 9.43130 22855 ft 397 kts 189°
2026-05-06 18:16 52.87563 9.42533 22859 ft 397 kts 189°
2026-05-06 18:16 52.84831 9.41947 22863 ft 395 kts 189°
2026-05-06 18:17 52.83029 9.41562 22863 ft 394 kts 189°
2026-05-06 18:17 52.80309 9.40981 22863 ft 394 kts 189°
2026-05-06 18:17 52.77588 9.40400 22857 ft 394 kts 189°
2026-05-06 18:17 52.74866 9.39820 22857 ft 394 kts 189°
2026-05-06 18:18 52.72148 9.39242 22850 ft 394 kts 189°
2026-05-06 18:18 52.69425 9.38666 22848 ft 394 kts 189°
2026-05-06 18:18 52.66707 9.38093 22842 ft 394 kts 189°
2026-05-06 18:18 52.63987 9.37518 22840 ft 394 kts 189°
2026-05-06 18:19 52.61270 9.36931 22840 ft 393 kts 190°
2026-05-06 18:19 52.58563 9.36270 22843 ft 393 kts 191°
2026-05-06 18:19 52.55867 9.35555 22843 ft 392 kts 191°
2026-05-06 18:19 52.53177 9.34818 22842 ft 392 kts 191°
2026-05-06 18:20 52.50485 9.34079 22840 ft 392 kts 191°
2026-05-06 18:20 52.47794 9.33349 22834 ft 392 kts 191°
2026-05-06 18:20 52.45102 9.32632 22834 ft 392 kts 191°
2026-05-06 18:20 52.42409 9.31926 22833 ft 392 kts 191°
2026-05-06 18:21 52.39715 9.31222 22816 ft 392 kts 191°
2026-05-06 18:21 52.37025 9.30521 22817 ft 392 kts 191°
2026-05-06 18:21 52.34330 9.29820 22817 ft 392 kts 191°
2026-05-06 18:21 52.31636 9.29118 22819 ft 392 kts 191°
2026-05-06 18:22 52.28940 9.28417 22816 ft 392 kts 191°
2026-05-06 18:22 52.26245 9.27716 22818 ft 392 kts 191°
2026-05-06 18:22 52.23546 9.27013 22819 ft 393 kts 191°
2026-05-06 18:22 52.20841 9.26383 22822 ft 393 kts 189°
2026-05-06 18:23 52.18119 9.25859 22828 ft 394 kts 188°
2026-05-06 18:23 52.15392 9.25393 22818 ft 394 kts 188°
2026-05-06 18:23 52.12663 9.24945 22814 ft 394 kts 188°
2026-05-06 18:23 52.09930 9.24493 22811 ft 395 kts 188°
2026-05-06 18:24 52.07197 9.24026 22807 ft 395 kts 188°
2026-05-06 18:24 52.04462 9.23528 22809 ft 396 kts 189°
2026-05-06 18:24 52.01739 9.22908 22809 ft 395 kts 191°
2026-05-06 18:24 51.99057 9.22202 22811 ft 396 kts 192°
2026-05-06 18:25 51.96347 9.21449 22816 ft 396 kts 192°
2026-05-06 18:25 51.93630 9.20687 22816 ft 396 kts 192°
2026-05-06 18:25 51.90917 9.19937 22812 ft 396 kts 191°
2026-05-06 18:25 51.88195 9.19201 22808 ft 396 kts 191°
2026-05-06 18:26 51.85467 9.18532 22810 ft 397 kts 190°
2026-05-06 18:26 51.82728 9.17929 22815 ft 397 kts 189°
2026-05-06 18:26 51.79990 9.17364 22813 ft 397 kts 189°
2026-05-06 18:26 51.77246 9.16806 22814 ft 397 kts 189°
2026-05-06 18:27 51.74504 9.16246 22814 ft 397 kts 189°
2026-05-06 18:27 51.71765 9.15673 22814 ft 397 kts 189°
2026-05-06 18:27 51.69029 9.15090 22814 ft 397 kts 189°
2026-05-06 18:27 51.66291 9.14496 22815 ft 396 kts 189°
2026-05-06 18:28 51.63563 9.13900 22824 ft 395 kts 189°
2026-05-06 18:28 51.60847 9.13313 22828 ft 395 kts 189°
2026-05-06 18:28 51.58114 9.12724 22831 ft 395 kts 189°
2026-05-06 18:28 51.55431 9.11863 22830 ft 392 kts 199°
2026-05-06 18:29 51.52948 9.10115 22836 ft 390 kts 212°
2026-05-06 18:29 51.50775 9.07539 22835 ft 388 kts 224°
2026-05-06 18:29 51.49011 9.04284 22841 ft 387 kts 236°
2026-05-06 18:29 51.47722 9.00495 22838 ft 387 kts 246°
2026-05-06 18:30 51.46659 8.96532 22837 ft 387 kts 246°
2026-05-06 18:30 51.45593 8.92572 22831 ft 387 kts 246°
2026-05-06 18:30 51.44526 8.88620 22841 ft 386 kts 246°
2026-05-06 18:30 51.43459 8.84677 22852 ft 385 kts 246°
2026-05-06 18:31 51.42392 8.80738 22850 ft 385 kts 246°
2026-05-06 18:31 51.41326 8.76804 22851 ft 385 kts 245°
2026-05-06 18:31 51.40077 8.73021 22863 ft 384 kts 240°
2026-05-06 18:31 51.38737 8.69322 22862 ft 384 kts 240°
2026-05-06 18:32 51.37398 8.65628 22864 ft 384 kts 240°
2026-05-06 18:32 51.36056 8.61928 22863 ft 384 kts 240°
2026-05-06 18:32 51.34709 8.58211 22850 ft 389 kts 240°
2026-05-06 18:32 51.33350 8.54452 22851 ft 392 kts 240°
2026-05-06 18:33 51.31985 8.50679 22201 ft 393 kts 240°
2026-05-06 18:33 51.30617 8.46901 21572 ft 391 kts 240°
2026-05-06 18:33 51.29263 8.43185 21111 ft 384 kts 240°
2026-05-06 18:33 51.27924 8.39518 20643 ft 380 kts 240°
2026-05-06 18:34 51.26599 8.35892 20165 ft 375 kts 240°
2026-05-06 18:34 51.25297 8.32307 19682 ft 371 kts 240°
2026-05-06 18:34 51.24014 8.28762 19207 ft 367 kts 240°
2026-05-06 18:34 51.22742 8.25255 18719 ft 364 kts 240°
2026-05-06 18:35 51.21474 8.21777 18246 ft 361 kts 240°
2026-05-06 18:35 51.20218 8.18335 17728 ft 358 kts 239°
2026-05-06 18:35 51.18970 8.14926 17249 ft 354 kts 239°
2026-05-06 18:35 51.17744 8.11611 16729 ft 351 kts 237°
2026-05-06 18:36 51.16112 8.08676 15906 ft 359 kts 220°
2026-05-06 18:36 51.14174 8.06177 15400 ft 358 kts 220°
2026-05-06 18:36 51.12251 8.03684 14946 ft 355 kts 220°
2026-05-06 18:36 51.10347 8.01201 14495 ft 353 kts 220°
2026-05-06 18:37 51.08408 7.98666 14035 ft 377 kts 220°
2026-05-06 18:37 51.06318 7.95932 13530 ft 398 kts 220°
2026-05-06 18:37 51.04165 7.93126 12970 ft 398 kts 220°
2026-05-06 18:37 51.02024 7.90353 12339 ft 395 kts 220°
2026-05-06 18:38 50.99900 7.87612 11696 ft 392 kts 220°
2026-05-06 18:38 50.97790 7.84892 11362 ft 391 kts 220°
2026-05-06 18:38 50.95684 7.82178 10850 ft 389 kts 220°
2026-05-06 18:38 50.93593 7.79482 10315 ft 386 kts 220°
2026-05-06 18:39 50.91517 7.76811 10108 ft 384 kts 220°
2026-05-06 18:39 50.89440 7.74142 9991 ft 385 kts 220°
2026-05-06 18:39 50.87386 7.71504 9829 ft 372 kts 220°
2026-05-06 18:40 50.83557 7.66612 9573 ft 337 kts 220°
2026-05-06 18:40 50.81775 7.64336 9439 ft 322 kts 220°
2026-05-06 18:40 50.80070 7.62156 9303 ft 309 kts 220°
2026-05-06 18:40 50.78429 7.60059 9179 ft 297 kts 220°
2026-05-06 18:41 50.76850 7.58043 9002 ft 288 kts 220°
2026-05-06 18:41 50.75305 7.56072 8688 ft 283 kts 220°
2026-05-06 18:41 50.73749 7.54086 7950 ft 293 kts 220°
2026-05-06 18:41 50.72132 7.52021 7160 ft 305 kts 220°
2026-05-06 18:42 50.70451 7.49879 6362 ft 316 kts 220°
2026-05-06 18:42 50.68714 7.47645 5472 ft 327 kts 221°
2026-05-06 18:42 50.67257 7.44903 4659 ft 329 kts 247°
2026-05-06 18:42 50.66882 7.41484 4448 ft 309 kts 278°
2026-05-06 18:43 50.67606 7.38551 4371 ft 273 kts 311°
2026-05-06 18:43 50.69062 7.36981 4304 ft 243 kts 344°
2026-05-06 18:43 50.70644 7.36416 4139 ft 227 kts 347°
2026-05-06 18:43 50.72103 7.35568 3909 ft 222 kts 329°
2026-05-06 18:44 50.73335 7.34117 3627 ft 220 kts 321°
2026-05-06 18:44 50.74468 7.32512 3331 ft 218 kts 319°
2026-05-06 18:44 50.75581 7.30904 3042 ft 215 kts 320°
2026-05-06 18:44 50.76668 7.29337 2759 ft 213 kts 320°
2026-05-06 18:45 50.77756 7.27771 2462 ft 203 kts 320°
2026-05-06 18:45 50.78756 7.26329 2218 ft 186 kts 320°
2026-05-06 18:45 50.79660 7.25026 1969 ft 170 kts 320°
2026-05-06 18:45 50.80481 7.23842 1749 ft 149 kts 320°
2026-05-06 18:46 50.81212 7.22787 1528 ft 138 kts 319°
2026-05-06 18:46 50.81914 7.21777 1336 ft 135 kts 319°
2026-05-06 18:46 50.82602 7.20786 1153 ft 133 kts 319°
2026-05-06 18:46 50.83291 7.19799 914 ft 134 kts 319°
2026-05-06 18:47 50.83982 7.18812 730 ft 133 kts 318°
2026-05-06 18:47 50.84667 7.17830 566 ft 134 kts 317°
2026-05-06 18:47 50.85349 7.16821 396 ft 134 kts 317°
2026-05-06 18:47 50.86019 7.15832 300 ft 125 kts 317°
2026-05-06 18:48 50.86539 7.15091 278 ft 76 kts 318°
2026-05-06 18:48 50.86802 7.14710 266 ft 37 kts 312°
2026-05-06 18:48 50.86877 7.14378 259 ft 28 kts 279°
2026-05-06 18:48 50.86896 7.14230 256 ft 15 kts 283°
2026-05-06 18:49 50.86936 7.14064 254 ft 18 kts 308°
2026-05-06 18:49 50.87046 7.13903 244 ft 25 kts 318°
2026-05-06 18:49 50.87123 7.13791 241 ft 12 kts 317°
2026-05-06 18:49 50.87196 7.13684 238 ft 16 kts 317°
2026-05-06 18:50 50.87289 7.13548 235 ft 20 kts 317°
2026-05-06 18:50 50.87401 7.13387 232 ft 23 kts 317°
2026-05-06 18:50 50.87520 7.13212 233 ft 24 kts 317°
2026-05-06 18:50 50.87636 7.13046 233 ft 17 kts 318°
2026-05-06 18:51 50.87727 7.12914 233 ft 16 kts 317°
2026-05-06 18:51 50.87790 7.12793 232 ft 14 kts 278°
2026-05-06 18:51 50.87789 7.12685 232 ft 6 kts 287°
2026-05-06 18:51 50.87809 7.12642 232 ft 4 kts 313°
2026-05-06 18:52 50.87830 7.12622 232 ft 3 kts 335°
2026-05-06 18:52 50.87850 7.12590 232 ft 7 kts 298°
2026-05-06 18:52 50.87860 7.12526 232 ft 5 kts 287°
2026-05-06 18:52 50.87869 7.12479 232 ft 4 kts 287°
2026-05-06 18:53 50.87874 7.12460 232 ft 0 kts 289°